Preview of NWS' New Version of Forecast
This preview is not operational and should not be used for support decisions.
Latest weather observations around

Los Angeles, Los Angeles International Airport (KLAX)

Using International System of Units (Switch to English Units)
Date/ Time (PST) Wind (kph) Vis. (km) Weather Sky Cond. Temp (°C) Rel. Humidity Wind Chill (°C) Heat Index (°C) Pressure Precip. (cm)
Air Dwpt 6 hour Altimeter (hPa) Sea level (hPa) 1 hr 3 hr 6 hr
Max Min
Feb 18 13:53 W 32 16.09 Partly Cloudy and Windy FEW040 SCT075 SCT110 13 1     43%     1016.6 1016.4      
Feb 18 12:53 9 16.09 Partly Cloudy SCT036 14 -1     34%     1016.9 1016.8      
Feb 18 11:53 SE 9 16.09 Mostly Clear FEW035 14 -1     36%     1017.6 1017.6      
Feb 18 10:53 SE 9 16.09 Mostly Clear FEW036 12 -2     38%     1018 1018      
Feb 18 09:53 ENE 8 16.09 Mostly Clear FEW036 12 -1     41%     1018 1018      
Feb 18 08:53 8 16.09 Mostly Clear FEW036 11 -3     39%     1018.3 1018.1      
Feb 18 07:53 5 16.09 Mostly Clear FEW037 9 -3     41% 9   1018 1017.9      
Feb 18 06:53 Calm 16.09 Mostly Clear FEW040 8 -5     39%     1017.3 1017      
Feb 18 05:53 NW 18 16.09 Mostly Clear FEW120 8 -4     42% 5   1016.9 1016.7      
Feb 18 04:53 NNW 17 16.09 Clear CLR 8 -4     40% 6   1016.6 1016.6      
Feb 18 03:53 N 18 16.09 Clear CLR 9 -5     37% 6   1016.3 1016      
Feb 18 02:53 NW 15 16.09 Clear CLR 8 -3     44% 6   1016.3 1016.2      
Feb 18 01:53 WNW 17 16.09 Mostly Clear FEW040 FEW110 9 -3     44% 6   1016.9 1016.7      
Feb 18 00:53 NW 22 16.09 Clear   9 -3     42% 6   1016.9 1016.6      
Feb 17 23:53 NW 22 16.09 Partly Cloudy FEW040 SCT110 9 -3     42% 6   1016.6 1016.4      
Feb 17 22:53 NNW 22 16.09 Partly Cloudy FEW040 SCT110 10 -1     46%     1016.6 1016.4      
Feb 17 21:53 NW 22 16.09 Mostly Cloudy FEW041 BKN110 11 2     56%     1016.3 1016.1      
Feb 17 20:53 WNW 35 16.09 Partly Cloudy and Windy SCT100 11 2     52%     1015.6 1015.5      
Feb 17 19:53 W 45 16.09 Mostly Clear and Breezy FEW080 12 3     56%     1014.6 1014.3      
Feb 17 18:53   16.09 Mostly Clear FEW090 12 3     56%     1014.2 1014.3      
Feb 17 17:53 W 45 16.09 Mostly Clear and Breezy FEW035 12 4     59%     1013.9 1013.9      
Feb 17 16:53   16.09 Mostly Clear FEW040 12 4     59%     1013.9 1013.7      
Feb 17 15:53   16.09 Mostly Clear FEW017 FEW038 13 4     55%     1013.9 1013.9     0
Feb 17 14:53 W 32 16.09 Partly Cloudy and Windy FEW017 FEW027 SCT065 13 9     77%     1014.9 1015 0    
Feb 17 13:53 WSW 24 16.09 Mostly Cloudy SCT028 SCT047 BKN080 12 7     72%     1016.3 1016      
Feb 17 12:53 WSW 18 16.09 Mostly Cloudy FEW028 SCT047 BKN070 12 6     64%     1017.3 1017      
Feb 17 11:53 W 37 16.09 Cloudy and Windy SCT029 BKN055 OVC100 12 5     61%     1018.3 1018.1      
Feb 17 10:53 W 32 16.09 Mostly Cloudy and Windy SCT028 SCT080 BKN110 13 3     52%     1019 1019      
Feb 17 09:53 WSW 11 16.09 Partly Cloudy FEW028 FEW070 SCT100 12 2     50%     1019.3 1019.1      
Feb 17 08:53 W 11 16.09 Partly Cloudy FEW028 FEW070 SCT100 12 4     59%     1019.3 1019.1      
Feb 17 07:53 NNW 8 16.09 Mostly Clear FEW026 FEW075 11 3     61%     1019 1018.7      
Feb 17 06:53 NNW 9 16.09 Mostly Clear FEW026 FEW075 9 3     63% 8   1018.6 1018.3      
Feb 17 05:53 NNW 11 16.09 Mostly Clear FEW020 FEW075 9 4     71% 7   1018 1017.9      
Feb 17 04:53 N 8 16.09 Mostly Clear FEW075 9 4     71% 8   1018 1017.8      
Feb 17 03:53 Calm 16.09 Mostly Clear FEW015 FEW080 9 4     71%     1018 1017.7      
Feb 17 02:53 N 9 16.09 Mostly Clear FEW012 9 4     69% 8   1018.3 1018.2      
Feb 17 01:53 WNW 21 16.09 Mostly Clear FEW020 11 5     66%     1018.6 1018.2      
Feb 17 00:53 WNW 18 16.09 Mostly Clear FEW020 11 4     63%     1018.6 1018.4      
Feb 16 23:53 WNW 22 16.09 Mostly Clear FEW020 12 4     61%     1019 1018.8      
Feb 16 22:53 W 28 16.09 Clear CLR 12 4     61%     1019 1018.9      
Feb 16 21:53 WNW 17 16.09 Clear   12 4     59%     1019 1018.9      
Feb 16 20:53 NW 13 16.09 Clear CLR 12 6     64%     1019 1018.9      
Feb 16 19:53 W 41 16.09 Mostly Clear and Windy FEW060 13 6     62%     1018.6 1018.6      
Feb 16 18:53   16.09 Mostly Clear FEW060 13 7     67%     1018.6 1018.5      
Feb 16 17:53   16.09 Partly Cloudy SCT060 13 7     67%     1018.3 1018.4      
Feb 16 16:53 W 45 16.09 Partly Cloudy and Breezy SCT060 14 7     62%     1018.3 1018.3      
Feb 16 15:53 W 35 16.09 Partly Cloudy and Windy FEW043 SCT055 15 6     55%     1018.6 1018.5      
Feb 16 14:53 W 32 16.09 Partly Cloudy and Windy FEW026 FEW043 SCT055 15 6     55%     1018.3 1018.3      
Feb 16 13:53 W 28 16.09 Partly Cloudy FEW026 FEW043 SCT055 SCT280 15 4     49%     1018.6 1018.6      
Feb 16 12:53 WSW 18 16.09 Partly Cloudy FEW043 SCT060 14 4     51%     1019.7 1019.6      
Feb 16 11:53 W 18 16.09 Partly Cloudy FEW038 SCT055 14 4     49%     1020.7 1020.5      
Feb 16 10:53 WSW 15 16.09 Mostly Clear FEW026 FEW042 13 1     43%     1021.3 1021.4      
Feb 16 09:53 9 16.09 Mostly Clear FEW023 FEW041 13 2     47%     1021.3 1021      
Feb 16 08:53 N 5 16.09 Partly Cloudy FEW023 FEW036 SCT170 12 2     52%     1021.7 1021.6      
Feb 16 07:53 NW 8 16.09 Partly Cloudy FEW021 FEW036 SCT170 10 3     61%     1021.7 1021.4      
Feb 16 06:53 NNW 9 16.09 Partly Cloudy FEW019 FEW034 SCT170 9 1     56% 8   1021 1020.9      
Feb 16 05:53 NNW 9 16.09 Clear CLR 9 3     66% 7   1020.7 1020.5      
Feb 16 04:53 WNW 8 16.09 Clear CLR 9 4     69% 8   1020 1019.7      
Feb 16 03:53 WNW 11 16.09 Clear CLR 9 5     74% 8   1019 1019     0
Feb 16 02:53 NW 9 16.09 Clear CLR 9 6     77% 8   1019 1019      
Feb 16 01:53 N 8 16.09 Mostly Clear FEW029 10 7     80%     1019 1018.8      
Feb 16 00:53 W 26 16.09 Partly Cloudy SCT029 SCT080 11 6     71%     1019.3 1019   0  
Feb 15 23:53 W 18 16.09 Mostly Cloudy SCT025 BKN080 11 9     86%     1019 1018.7 0    
Feb 15 22:53 NW 11 16.09 Mostly Cloudy SCT024 BKN075 BKN100 11 8     83%     1019 1018.9 0    
Feb 15 21:53 W 26 16.09 Mostly Cloudy SCT029 BKN055 13 7     69%     1019.3 1019.1     0
Feb 15 20:53 W 21 16.09 Mostly Cloudy BKN026 BKN060 13 8     74%     1019 1018.8 0    
Feb 15 19:53 W 22 16.09 Mostly Cloudy BKN020 BKN065 12 9     83%     1019 1018.9      
Feb 15 18:53 W 26 16.09 Mostly Cloudy SCT013 SCT027 BKN080 12 10     86%     1019 1018.9 0 0  
Feb 15 17:53 SW 22 8.05 Light Rain and Fog/Mist SCT007 BKN015 OVC030 12 11     93%     1018.3 1018.1 0    
Feb 15 16:53 WSW 22 8.05 Light Drizzle SCT017 BKN022 OVC055 12 10     86%     1018.3 1018.2 0    
Feb 15 16:32 SSW 26 4.83 Rain and Fog/Mist BKN022 OVC055 13 9     75%     1018.3   0    
Feb 15 15:53 SW 24 16.09 Cloudy SCT025 BKN040 OVC070 14 9     72%     1018.6 1018.4      
Feb 15 14:53 SW 22 16.09 Cloudy FEW025 SCT037 OVC070 14 9     70%     1018.6 1018.6      
May 15 08:53 SSW 13 12.87 Mostly Cloudy BKN021 17 11     70%     1018 1017.7      
May 14 11:53 WSW 28 12.87 Partly Cloudy FEW027 SCT140 SCT180 18 12     65%     1016.3 1016      
May 14 09:09 9 11.27 Mostly Cloudy SCT018 BKN140 17 12     70%     1015.6        
May 11 17:53 ESE 11 16.09 Mostly Cloudy BKN025 BKN031 17 11     67%     1009.8 1009.6      
Jun 12 02:53 E 9 16.09 Mostly Clear FEW090 FEW220 14 11     81%     1014.9 1014.6      
Jun 10 23:53 SW 9 16.09 Clear   17 14     81%     1011.5 1011.3      
Jun 10 06:53 WSW 9 16.09 Cloudy BKN020 OVC026 17 14     86%     1011.9 1011.6      
Jun 10 05:53 WSW 5 16.09 Mostly Cloudy BKN023 17 14     84%     1011.5 1011.2      
Jun 09 15:53 WSW 22 16.09 Partly Cloudy FEW013 SCT100 21 16     73%     1012.9 1012.6      
Jun 09 12:53 WSW 22 14.48 Mostly Clear FEW017 FEW120 21 13     59%     1014.6 1014.2      
Jun 09 00:53 SSW 5 16.09 Mostly Clear FEW011 16 13     83%     1013.9 1013.7      
Jun 08 16:53 WSW 33 16.09 Clear and Windy   19 14     71%     1014.2 1014.2      
Jun 08 05:53 W 11 6.44 Clear   16 16     97%     1015.6 1015.3 0    
Jun 07 15:53 WSW 21 16.09 Mostly Clear FEW022 20 15     73%     1013.9 1013.7      
Jun 07 12:53 11 11.27 Cloudy OVC016 18 15     81%     1015.2 1015.1      
Jun 07 10:53 WSW 15 9.66 Haze SCT012 OVC014 17 15     87%     1014.9 1014.9     0
Jun 07 09:53 WSW 11 8.05 Fog/Mist BKN013 OVC018 17 15     87%     1014.6 1014.4